GW5982 Weather Reports


time (UTC)temp
C
wind
direction
speed
KPH
gust
KPH
rain 1hr
cm
rain 24hr
cm
rain mn
cm
humidity
%
barometer
mb
20260508122005 8 301 9.7 17.7 0.00 0.10 0.00 77 1003.0
20260508121516 8 280 12.9 17.7 0.00 0.10 0.00 76 1002.9
20260508121007 8 302 11.3 20.9 0.00 0.10 0.00 77 1002.7
20260508120507 8 288 9.7 20.9 0.00 0.10 0.00 77 1002.7
20260508120018 8 259 11.3 19.3 0.00 0.10 0.00 77 1002.8
20260508115510 8 295 9.7 19.3 0.00 0.10 0.00 77 1002.8
20260508115011 8 285 11.3 19.3 0.00 0.10 0.00 78 1002.8
20260508114524 8 276 11.3 19.3 0.00 0.10 0.00 79 1002.8
20260508114008 8 276 9.7 19.3 0.00 0.10 0.00 80 1002.7
20260508113507 7 289 12.9 19.3 0.00 0.10 0.00 79 1002.6
20260508113041 7 303 9.7 22.5 0.00 0.10 0.00 80 1002.7
20260508112510 7 259 12.9 22.5 0.00 0.10 0.00 79 1002.7
20260508112011 8 302 8.0 20.9 0.00 0.10 0.00 82 1002.6
20260508111525 7 252 9.7 20.9 0.00 0.10 0.00 83 1002.6
20260508111018 7 300 8.0 14.5 0.00 0.10 0.00 86 1002.6
20260508110503 7 266 9.7 12.9 0.00 0.13 0.00 86 1002.5
20260508110018 7 242 3.2 8.0 0.00 0.13 0.00 87 1002.6
20260508105510 7 243 6.4 9.7 0.00 0.13 0.00 87 1002.6
20260508105011 6 281 4.8 12.9 0.00 0.15 0.00 87 1002.6
20260508104522 7 300 4.8 12.9 0.00 0.15 0.00 87 1002.5
20260508104008 7 286 3.2 11.3 0.00 0.15 0.00 88 1002.5
20260508103508 7 271 3.2 11.3 0.00 0.15 0.00 88 1002.5
20260508103032 6 275 3.2 8.0 0.00 0.15 0.00 89 1002.5
20260508102510 6 283 4.8 9.7 0.00 0.15 0.00 90 1002.6
20260508102012 6 278 6.4 11.3 0.00 0.15 0.00 90 1002.5
20260508101530 5 232 8.0 11.3 0.00 0.15 0.00 90 1002.6
20260508101011 5 232 4.8 8.0 0.00 0.15 0.00 90 1002.5
20260508100511 5 239 4.8 6.4 0.00 0.15 0.00 90 1002.4
20260508100029 5 270 4.8 6.4 0.00 0.15 0.00 90 1002.3
20260508095510 6 238 1.6 6.4 0.00 0.18 0.00 90 1002.2
20260508095011 5 268 3.2 6.4 0.00 0.18 0.00 90 1002.1
20260508094516 5 282 1.6 6.4 0.00 0.18 0.00 90 1002.0
20260508094010 5 294 1.6 8.0 0.00 0.18 0.00 91 1002.1
20260508093509 5 274 4.8 8.0 0.00 0.18 0.00 91 1002.1
20260508093020 5 250 6.4 8.0 0.00 0.18 0.00 91 1002.2
20260508092509 5 234 4.8 8.0 0.00 0.18 0.00 90 1002.2
20260508092009 5 235 4.8 8.0 0.00 0.18 0.00 90 1002.3
20260508091534 5 241 3.2 8.0 0.00 0.18 0.00 90 1002.2
20260508091008 5 236 3.2 8.0 0.00 0.18 0.00 90 1002.2
20260508090511 5 248 4.8 8.0 0.00 0.18 0.00 90 1002.1
20260508090036 5 237 6.4 8.0 0.00 0.18 0.00 90 1002.1
20260508085509 5 259 3.2 6.4 0.00 0.18 0.00 90 1002.0
20260508085008 5 243 3.2 6.4 0.00 0.18 0.00 90 1002.0
20260508084528 5 265 4.8 6.4 0.00 0.18 0.00 90 1001.9
20260508084012 5 259 4.8 6.4 0.00 0.18 0.00 90 1002.1
20260508083512 5 280 4.8 8.0 0.00 0.18 0.00 90 1002.0
20260508083028 5 259 4.8 8.0 0.00 0.18 0.00 90 1002.0
20260508082511 5 243 4.8 6.4 0.00 0.18 0.00 90 1001.9
20260508082006 5 269 4.8 6.4 0.00 0.18 0.00 91 1001.8
20260508081524 5 260 3.2 4.8 0.00 0.18 0.00 90 1001.8
20260508081008 5 236 1.6 3.2 0.00 0.18 0.00 91 1001.8
20260508080510 5 256 0.0 6.4 0.00 0.18 0.00 91 1001.9
20260508080034 5 253 3.2 8.0 0.00 0.18 0.00 91 1002.0
20260508075509 5 278 4.8 8.0 0.00 0.18 0.00 91 1001.9
20260508075009 5 247 6.4 8.0 0.00 0.18 0.00 91 1001.9
20260508074530 5 228 0.0 4.8 0.00 0.18 0.00 91 1001.9
20260508074008 5 210 1.6 6.4 0.00 0.18 0.00 91 1001.9
20260508073511 5 245 3.2 6.4 0.00 0.18 0.00 91 1001.9
20260508073014 5 259 3.2 6.4 0.00 0.18 0.00 91 1002.0
20260508072504 5 258 3.2 8.0 0.00 0.18 0.00 92 1002.0
20260508072005 5 249 4.8 8.0 0.00 0.20 0.00 92 1002.0
20260508071524 5 258 3.2 6.4 0.00 0.20 0.00 92 1001.9
20260508071013 5 253 1.6 3.2 0.00 0.18 0.00 91 1001.9
20260508070510 5 217 1.6 3.2 0.00 0.18 0.00 92 1002.0
20260508070024 5 168 1.6 3.2 0.00 0.18 0.00 92 1002.0
20260508065509 5 207 1.6 4.8 0.00 0.18 0.00 92 1001.9
20260508065014 5 240 3.2 6.4 0.00 0.18 0.00 92 1001.9
20260508064506 5 272 3.2 8.0 0.00 0.18 0.00 92 1001.9
20260508064003 5 261 4.8 9.7 0.00 0.18 0.00 92 1002.0
20260508063504 5 236 6.4 9.7 0.00 0.18 0.00 92 1002.2
20260508063010 5 250 6.4 9.7 0.00 0.18 0.00 92 1002.3
20260508062507 5 238 4.8 8.0 0.00 0.18 0.00 92 1002.2
20260508062006 5 261 4.8 8.0 0.00 0.18 0.00 93 1002.2
20260508061515 5 270 6.4 9.7 0.00 0.18 0.00 93 1002.1
20260508061005 5 257 6.4 9.7 0.00 0.18 0.00 93 1002.1
20260508060507 5 262 6.4 9.7 0.00 0.18 0.00 93 1002.2
20260508060021 5 269 4.8 9.7 0.00 0.18 0.00 93 1002.3
20260508055507 5 250 6.4 9.7 0.00 0.18 0.00 93 1002.2
20260508055007 5 251 4.8 9.7 0.00 0.20 0.00 93 1002.2
20260508054525 5 256 4.8 11.3 0.00 0.20 0.00 93 1002.3
20260508054010 5 259 6.4 11.3 0.00 0.23 0.00 93 1002.3
20260508053509 5 253 8.0 16.1 0.00 0.23 0.00 93 1002.3
20260508053027 5 255 6.4 16.1 0.00 0.23 0.00 93 1002.2
20260508052504 5 242 8.0 12.9 0.00 0.23 0.00 93 1002.3
20260508052004 5 201 6.4 8.0 0.00 0.23 0.00 93 1002.2
20260508051512 5 233 6.4 8.0 0.00 0.23 0.00 93 1002.2
20260508051004 5 214 4.8 8.0 0.00 0.25 0.00 93 1002.1
20260508050505 5 232 4.8 9.7 0.00 0.25 0.00 93 1002.2
20260508050016 5 213 3.2 9.7 0.00 0.25 0.00 93 1002.1
20260508045512 5 210 6.4 9.7 0.00 0.25 0.00 93 1002.1
20260508045007 5 203 4.8 9.7 0.00 0.25 0.00 93 1002.0
20260508044521 5 255 3.2 8.0 0.00 0.25 0.00 93 1002.1
20260508044009 5 224 4.8 8.0 0.00 0.25 0.00 93 1002.0
20260508043509 5 214 6.4 8.0 0.00 0.25 0.00 93 1002.1
20260508043022 5 172 3.2 6.4 0.00 0.25 0.00 93 1002.1
20260508042511 5 155 1.6 6.4 0.00 0.25 0.00 93 1002.2
20260508042010 5 226 4.8 6.4 0.00 0.25 0.00 93 1002.2
20260508041529 5 238 3.2 6.4 0.00 0.25 0.00 93 1002.2
20260508041010 5 221 3.2 9.7 0.00 0.25 0.00 93 1001.9
20260508040512 5 252 1.6 19.3 0.00 0.25 0.00 92 1001.9
20260508040013 5 215 6.4 19.3 0.00 0.25 0.00 92 1002.1
20260508035503 5 232 6.4 19.3 0.00 0.25 0.00 92 1002.0
20260508035009 6 214 6.4 12.9 0.00 0.25 0.00 92 1002.1
20260508034518 6 161 8.0 12.9 0.00 0.25 0.00 92 1002.1
20260508034008 6 155 6.4 12.9 0.00 0.25 0.00 92 1002.0
20260508033510 6 172 6.4 9.7 0.00 0.25 0.00 92 1001.9
20260508033022 6 169 4.8 8.0 0.00 0.25 0.00 93 1001.9
20260508032509 6 152 6.4 8.0 0.00 0.25 0.00 93 1002.1
20260508032013 6 156 6.4 8.0 0.00 0.25 0.00 93 1002.1
20260508031524 6 153 4.8 9.7 0.00 0.25 0.00 93 1002.2
20260508031011 6 154 6.4 9.7 0.00 0.25 0.00 93 1002.2
20260508030511 6 162 4.8 6.4 0.00 0.25 0.00 93 1002.2
20260508030028 6 153 4.8 8.0 0.00 0.25 0.00 92 1002.0
20260508025510 6 159 4.8 8.0 0.00 0.25 0.25 92 1002.1
20260508025013 6 162 4.8 9.7 0.00 0.25 0.25 92 1002.1
20260508024537 6 153 6.4 9.7 0.00 0.25 0.25 92 1002.1
20260508024004 6 158 6.4 8.0 0.00 0.25 0.25 92 1002.0
20260508023508 6 130 4.8 9.7 0.00 0.25 0.25 92 1002.1
20260508023016 6 152 4.8 9.7 0.00 0.25 0.25 92 1002.1
20260508022507 6 164 6.4 9.7 0.00 0.25 0.25 92 1002.0
20260508022009 6 144 6.4 9.7 0.00 0.25 0.25 92 1002.1
20260508021532 6 165 4.8 9.7 0.00 0.25 0.25 92 1002.2
20260508021011 7 183 6.4 9.7 0.00 0.25 0.25 91 1002.2
20260508020506 7 214 4.8 9.7 0.00 0.25 0.25 91 1002.2
20260508020026 7 193 6.4 12.9 0.00 0.25 0.25 91 1002.2
20260508015507 7 192 6.4 12.9 0.00 0.25 0.25 91 1002.2
20260508015010 7 162 6.4 9.7 0.00 0.25 0.25 91 1001.9
20260508014526 7 153 6.4 9.7 0.00 0.25 0.25 91 1002.1
20260508014011 7 140 6.4 8.0 0.00 0.25 0.25 90 1002.1
20260508013512 7 156 4.8 6.4 0.00 0.25 0.25 90 1002.1
20260508013038 8 159 4.8 6.4 0.00 0.25 0.25 90 1002.1
20260508012511 8 157 3.2 9.7 0.00 0.25 0.25 90 1002.1
20260508012008 8 169 4.8 9.7 0.00 0.25 0.25 89 1001.9
20260508011519 8 159 3.2 6.4 0.00 0.25 0.25 89 1001.8
20260508011010 8 176 3.2 6.4 0.00 0.25 0.25 89 1002.1
20260508010509 8 124 4.8 8.0 0.00 0.25 0.25 88 1002.1
20260508010025 8 159 4.8 8.0 0.00 0.25 0.25 88 1002.1
20260508005513 8 140 4.8 6.4 0.00 0.25 0.25 87 1002.0
20260508005009 8 139 3.2 6.4 0.00 0.25 0.25 85 1001.9
20260508004535 9 151 3.2 4.8 0.00 0.25 0.25 85 1001.8
20260508004010 9 150 3.2 4.8 0.00 0.25 0.25 85 1001.9
20260508003512 9 153 3.2 6.4 0.00 0.25 0.25 85 1002.1
20260508003026 9 143 3.2 6.4 0.00 0.25 0.25 85 1002.1
20260508002508 9 156 3.2 4.8 0.00 0.25 0.25 84 1002.0
20260508002013 10 160 3.2 4.8 0.00 0.25 0.25 84 1001.8
20260508001530 10 134 1.6 3.2 0.00 0.25 0.25 84 1001.9
20260508001009 10 139 1.6 3.2 0.00 0.25 0.25 84 1001.7
20260508000515 10 151 1.6 3.2 0.00 0.25 0.25 84 1001.8
20260508000021 10 149 0.0 3.2 0.00 0.25 0.25 83 1001.8
20260507235510 10 148 1.6 3.2 0.00 0.25 0.25 83 1001.6
20260507235008 10 138 1.6 3.2 0.00 0.25 0.25 82 1001.6
20260507234525 10 132 0.0 3.2 0.00 0.25 0.25 81 1001.6
20260507234010 10 139 1.6 4.8 0.00 0.25 0.25 80 1001.5
20260507233509 11 148 1.6 4.8 0.00 0.25 0.25 80 1001.3
20260507233034 11 147 1.6 4.8 0.00 0.25 0.25 78 1001.4
20260507232510 11 122 1.6 4.8 0.00 0.25 0.25 77 1001.3
20260507232012 11 96 1.6 3.2 0.00 0.25 0.25 76 1001.5
20260507231525 12 109 1.6 3.2 0.00 0.25 0.25 75 1001.6
20260507231012 12 105 0.0 4.8 0.00 0.25 0.25 74 1001.6
20260507230510 12 97 0.0 4.8 0.00 0.25 0.25 73 1001.5
20260507230029 12 110 1.6 4.8 0.00 0.25 0.25 73 1001.7
20260507225510 12 94 1.6 6.4 0.00 0.25 0.25 73 1001.6
20260507225009 12 49 1.6 6.4 0.00 0.25 0.25 74 1001.6
20260507224531 12 70 1.6 6.4 0.00 0.25 0.25 75 1001.6
20260507224010 12 34 4.8 6.4 0.00 0.25 0.25 74 1001.6
20260507223512 12 21 1.6 6.4 0.00 0.25 0.25 76 1001.5
20260507223022 12 86 3.2 6.4 0.00 0.25 0.25 77 1001.6
20260507222509 11 8 3.2 6.4 0.00 0.25 0.25 78 1001.5
20260507222003 11 53 1.6 6.4 0.00 0.25 0.25 80 1001.5
20260507221517 11 44 1.6 6.4 0.00 0.25 0.25 81 1001.6
20260507221010 11 27 3.2 11.3 0.00 0.25 0.25 81 1001.6
20260507220507 11 37 4.8 11.3 0.00 0.25 0.25 80 1001.4
20260507220013 11 15 4.8 11.3 0.00 0.25 0.25 80 1001.4
20260507215507 11 47 6.4 12.9 0.00 0.25 0.25 80 1001.3
20260507215007 11 34 6.4 14.5 0.00 0.25 0.25 80 1001.4
20260507214518 11 18 6.4 14.5 0.00 0.25 0.25 80 1001.4
20260507214011 11 356 6.4 14.5 0.00 0.25 0.25 80 1001.3
20260507213516 12 6 8.0 16.1 0.00 0.25 0.25 79 1001.1
20260507213025 12 350 9.7 16.1 0.00 0.25 0.25 78 1001.1
20260507212510 12 13 9.7 14.5 0.00 0.25 0.25 77 1001.0
20260507212011 12 24 4.8 12.9 0.00 0.25 0.25 77 1001.1
20260507211526 12 27 8.0 12.9 0.00 0.25 0.25 76 1001.2
20260507211013 12 358 8.0 14.5 0.00 0.25 0.25 76 1001.0
20260507210510 13 34 8.0 16.1 0.00 0.25 0.25 74 1000.9
20260507210023 13 337 11.3 16.1 0.00 0.25 0.25 71 1000.9
20260507205505 13 330 6.4 14.5 0.00 0.25 0.25 70 1000.8
20260507205006 13 317 8.0 14.5 0.00 0.25 0.25 70 1000.8
20260507204516 13 312 3.2 11.3 0.00 0.25 0.25 73 1000.8
20260507204011 13 302 4.8 9.7 0.00 0.25 0.25 72 1000.7
20260507203507 13 297 3.2 6.4 0.00 0.25 0.25 73 1000.6
20260507203020 13 333 0.0 8.0 0.00 0.25 0.25 74 1000.5
20260507202506 13 300 4.8 8.0 0.00 0.25 0.25 73 1000.6
20260507202006 13 301 4.8 11.3 0.00 0.25 0.25 73 1000.6
20260507201523 13 321 4.8 14.5 0.00 0.25 0.25 73 1000.6
20260507201009 13 324 6.4 14.5 0.00 0.25 0.25 74 1000.5
20260507200510 13 309 9.7 14.5 0.00 0.25 0.25 74 1000.4
20260507200028 13 347 3.2 6.4 0.00 0.25 0.25 76 1000.4
20260507195512 13 249 3.2 6.4 0.00 0.25 0.25 77 1000.3
20260507195010 12 350 1.6 4.8 0.00 0.25 0.25 78 1000.3
20260507194513 12 292 1.6 6.4 0.00 0.25 0.25 79 1000.3
20260507194006 12 317 3.2 6.4 0.00 0.25 0.25 80 1000.4
20260507193506 12 3 3.2 8.0 0.00 0.25 0.25 80 1000.4
20260507193016 12 4 3.2 9.7 0.00 0.25 0.25 80 1000.3
20260507192507 12 334 3.2 14.5 0.00 0.25 0.25 80 1000.3
20260507192007 12 278 6.4 14.5 0.00 0.25 0.25 79 1000.4
20260507191520 12 289 9.7 17.7 0.00 0.25 0.25 77 1000.5
20260507191008 13 295 9.7 17.7 0.00 0.25 0.25 76 1000.4
20260507190508 13 248 9.7 17.7 0.00 0.25 0.25 75 1000.4
20260507190026 13 272 4.8 17.7 0.00 0.25 0.25 75 1000.4
20260507185509 13 240 6.4 17.7 0.00 0.25 0.25 77 1000.4
20260507185013 13 246 8.0 22.5 0.00 0.25 0.25 77 1000.3
20260507184524 13 283 12.9 22.5 0.00 0.25 0.25 76 1000.3
20260507184010 13 264 14.5 22.5 0.00 0.25 0.25 76 1000.4
20260507183511 13 242 9.7 19.3 0.00 0.25 0.25 78 1000.4
20260507183033 13 202 11.3 19.3 0.00 0.25 0.25 78 1000.5
20260507182507 12 256 8.0 19.3 0.00 0.25 0.25 80 1000.5
20260507182004 12 262 11.3 19.3 0.00 0.25 0.25 79 1000.4
20260507181518 12 276 6.4 14.5 0.00 0.25 0.25 83 1000.4
20260507181011 12 239 9.7 14.5 0.00 0.25 0.25 82 1000.6
20260507180509 12 244 8.0 14.5 0.00 0.25 0.25 83 1000.6
20260507180024 11 265 8.0 17.7 0.00 0.25 0.25 84 1000.6
20260507175506 11 252 9.7 17.7 0.00 0.25 0.25 84 1000.7
20260507175009 11 226 9.7 16.1 0.00 0.25 0.25 86 1000.8
20260507174533 11 294 11.3 16.1 0.00 0.25 0.25 86 1000.8
20260507174010 11 220 4.8 17.7 0.00 0.25 0.25 88 1000.4
20260507173508 10 241 11.3 17.7 0.00 0.25 0.25 88 1000.8
20260507173034 10 248 11.3 16.1 0.00 0.25 0.25 89 1001.0
20260507172509 10 307 1.6 14.5 0.00 0.25 0.25 90 1000.6
20260507172014 10 258 8.0 19.3 0.00 0.25 0.25 90 1001.0
20260507171528 10 252 9.7 19.3 0.00 0.25 0.25 90 1001.3
20260507171012 10 267 12.9 19.3 0.00 0.25 0.25 90 1001.1
20260507170507 10 259 12.9 19.3 0.00 0.25 0.25 91 1001.2
20260507170021 10 237 9.7 16.1 0.00 0.25 0.25 92 1001.0
20260507165506 10 242 8.0 12.9 0.00 0.25 0.25 92 1000.9
20260507165010 10 270 6.4 16.1 0.00 0.25 0.25 92 1000.9
20260507164522 10 259 8.0 16.1 0.00 0.25 0.25 92 1000.8
20260507164011 10 253 9.7 14.5 0.00 0.25 0.25 92 1001.0
20260507163508 10 288 9.7 17.7 0.00 0.25 0.25 92 1000.8
20260507163024 10 245 12.9 17.7 0.00 0.25 0.25 92 1001.3
20260507162510 10 277 9.7 19.3 0.00 0.25 0.25 92 1001.2
20260507162010 10 281 8.0 24.1 0.00 0.25 0.25 92 1001.2
20260507161532 10 273 9.7 25.7 0.00 0.25 0.25 92 1001.2
20260507161008 10 281 14.5 25.7 0.00 0.25 0.25 92 1001.4
20260507160510 10 18 8.0 14.5 0.00 0.25 0.25 92 1001.3
20260507160029 10 264 6.4 11.3 0.00 0.25 0.25 92 1001.2
20260507155513 10 171 4.8 14.5 0.00 0.25 0.25 92 1000.9
20260507155011 10 284 6.4 16.1 0.00 0.25 0.25 92 1001.7
20260507154529 10 243 9.7 16.1 0.00 0.25 0.25 92 1001.8
20260507154010 10 226 6.4 12.9 0.00 0.25 0.25 92 1001.7
20260507153507 10 305 6.4 19.3 0.00 0.25 0.25 92 1001.8
20260507153037 10 257 9.7 19.3 0.00 0.25 0.25 92 1002.0
20260507152508 10 240 6.4 11.3 0.03 0.25 0.25 92 1001.9
20260507152009 10 233 6.4 11.3 0.03 0.25 0.25 92 1001.7
20260507151526 10 229 4.8 14.5 0.05 0.25 0.25 92 1001.2
20260507151008 10 191 8.0 14.5 0.08 0.25 0.25 92 1001.5
20260507150509 10 200 8.0 14.5 0.08 0.25 0.25 92 1001.8
20260507150030 11 219 8.0 16.1 0.08 0.25 0.25 92 1002.0
20260507145508 11 234 6.4 16.1 0.08 0.25 0.25 92 1002.5
20260507145011 11 226 6.4 16.1 0.08 0.23 0.23 92 1002.4
20260507144526 11 214 8.0 17.7 0.08 0.23 0.23 92 1002.2
20260507144012 11 212 6.4 17.7 0.08 0.23 0.23 92 1001.9
20260507143510 11 221 8.0 24.1 0.08 0.23 0.23 91 1001.9
20260507143027 11 243 11.3 24.1 0.08 0.23 0.23 91 1002.3
20260507142506 11 185 8.0 22.5 0.05 0.20 0.20 91 1002.6
20260507142009 11 280 9.7 20.9 0.05 0.20 0.20 91 1002.3
20260507141523 11 266 11.3 19.3 0.03 0.18 0.18 91 1002.0
20260507141008 11 191 9.7 20.9 0.00 0.18 0.18 91 1001.7
20260507140507 11 232 11.3 20.9 0.00 0.18 0.18 91 1001.7
20260507140025 11 211 6.4 17.7 0.00 0.18 0.18 90 1001.7
20260507135508 11 236 8.0 20.9 0.00 0.15 0.15 90 1002.0
20260507135011 11 211 11.3 22.5 0.00 0.15 0.15 89 1001.8
20260507134526 11 245 16.1 22.5 0.00 0.15 0.15 89 1002.4
20260507134008 11 274 12.9 22.5 0.00 0.15 0.15 89 1002.4
20260507133513 11 220 12.9 27.4 0.00 0.15 0.15 88 1002.1
20260507133014 11 242 16.1 27.4 0.00 0.15 0.15 88 1002.2
20260507132505 12 246 16.1 27.4 0.00 0.15 0.15 87 1002.1
20260507132007 12 204 12.9 32.2 0.00 0.15 0.15 87 1001.8
20260507131508 12 184 16.1 32.2 0.00 0.15 0.15 87 1002.1
20260507131004 12 221 19.3 32.2 0.00 0.15 0.15 87 1002.1
20260507130505 12 257 17.7 33.8 0.00 0.15 0.15 87 1002.4
20260507130012 12 242 16.1 33.8 0.00 0.15 0.15 88 1002.5
20260507125505 12 252 12.9 24.1 0.00 0.15 0.15 89 1002.6
20260507125008 12 264 9.7 22.5 0.00 0.15 0.15 89 1002.4
20260507124511 12 215 11.3 24.1 0.00 0.15 0.15 89 1002.1
20260507124006 12 181 12.9 24.1 0.00 0.15 0.15 89 1002.1
20260507123504 12 197 14.5 24.1 0.00 0.15 0.15 89 1002.1
20260507123015 12 251 14.5 25.7 0.00 0.15 0.15 89 1001.8
20260507122504 12 251 16.1 25.7 0.00 0.15 0.15 89 1001.8